Погода в Араблинском

Россия / Республика Дагестан     41°57′57″N   48°19′49″E
темп.,
°C
ветер,
м/с
пор.,
м/с
влажн.,
%
обл.,
%
осадки,
мм/ч
давл.,
гПа
погр.,
м
18 апреля, вс
вс1800:00+16сз3556100 0.0 101983
03:00+13ссз4467100 0.0 101971
06:00+13юз1173100 0.0 101958
09:00+15ююв1164100 0.0 1018325
12:00+17всв226093 0.2 1016636
15:00+17с44556 0.7 1016553
18:00+15с5659100 0.1 1018351
21:00+14ссз1167100 0.3 101828
19 апреля, пн
пн1900:00+12ссв2274100 0.1 101719
03:00+12ссз1173100 0.1 101711
06:00+13зсз1171100 0.0 101714
09:00+18в225157 0.0 1017503
12:00+19в33436 0.0 1017634
15:00+18в334588 0.0 1016480
18:00+15ююв335777 0.0 1016178
21:00+13ю3366100 0.0 101653
20 апреля, вт
вт2000:00+13ю226137 0.0 101519
03:00+13ю2261100 0.0 101416
06:00+13ю2262100 0.0 101558
09:00+16юв3460100 0.0 1014315
12:00+18юв335643 0.0 1010434
15:00+17вюв4565100 0.0 1009375
18:00+14юв2375100 0.0 100899
21:00+13юв1278100 0.0 100739
21 апреля, ср
ср2100:00+14св1174100 0.0 100640
03:00+15сз5870100 0.0 1008140
06:00+14ссз5877100 0.0 1012295
09:00+14ссз5781100 0.0 1014418
12:00+14с577867 0.0 1015434
15:00+18с5662100 0.1 1015737
18:00+14с6106950 0.8 1017552
21:00+13ссз597684 0.8 1020340
22 апреля, чт
чт2200:00+13ссз247686 0.0 1020239
03:00+11ссз01854 0.0 102017
06:00+12зюз117918 0.0 102184
09:00+15с236021 0.0 1021918
12:00+17ссв33539 0.0 10201075
15:00+16ссв455916 0.0 1020666
18:00+15с346391 0.0 1020712
21:00+14с2363100 0.0 1020200